Wind_Speed
18 18 18 18 18 17 17 15 13 11 12 12 12 13 16 18 20 22 24 28 30 32 36 40 44 47 48 48 47 48 48 47 47 47 46 47 49 48 49 47 46 47 48 50
14 14 13 13 12 11 9 7 6 5 6 6 5 6 8 8 9 11 13 17 21 24 27 30 34 39 42 43 44 44 44 45 45 44 43 45 48 48 48 47 45 44 45 47
11 11 10 9 8 7 6 6 5 5 4 2 2 3 4 3 4 5 7 10 13 16 19 22 28 31 34 36 38 40 41 42 41 40 40 42 45 45 44 44 45 44 45 47
8 8 7 6 6 5 5 5 4 3 2 1 1 2 2 2 1 2 3 5 8 10 12 16 21 25 27 30 32 34 36 37 37 38 38 41 42 43 44 44 44 44 45 45
5 5 5 5 4 4 4 4 4 3 2 2 3 4 6 7 6 4 3 3 5 7 9 12 15 17 21 24 25 27 29 31 32 33 35 39 41 40 42 43 43 43 43 44
4 5 5 4 4 5 5 5 6 5 5 5 6 8 8 9 9 9 8 7 8 7 9 13 14 15 16 18 20 21 23 25 26 27 30 35 39 39 38 40 41 41 43 43
6 6 6 6 7 7 7 8 9 8 8 8 9 9 9 9 10 11 11 10 9 9 9 10 12 12 14 15 16 18 18 20 22 22 25 29 34 36 37 38 39 40 41 42
8 7 8 9 10 9 10 10 10 9 10 10 10 10 10 10 12 12 12 11 11 11 10 9 10 11 11 13 13 15 16 17 19 19 22 24 28 31 34 35 36 38 40 41
10 10 11 11 12 12 12 12 11 11 11 10 11 11 12 13 13 12 13 13 12 13 12 11 12 11 10 10 11 12 12 13 14 15 16 20 22 25 28 31 32 34 37 39
11 11 13 13 13 13 13 12 11 11 11 11 12 13 13 13 11 12 12 13 13 12 12 13 12 11 11 10 9 8 8 8 10 12 12 14 16 19 21 25 27 30 33 35
12 13 13 13 13 12 11 11 11 12 11 11 11 12 12 13 13 12 12 12 11 10 11 11 10 10 9 8 7 7 7 8 9 11 12 14 16 17 20 22 25 29 31 33
12 13 13 12 12 12 12 11 12 12 12 11 11 12 12 12 11 11 11 10 9 8 8 9 9 8 7 6 4 3 4 6 8 10 12 14 16 18 20 22 24 27 30 33
13 13 12 12 11 11 11 11 11 11 11 11 11 12 12 11 10 9 8 8 8 7 6 6 5 4 2 1 1 2 4 6 8 9 11 13 15 17 20 22 24 27 29 31
13 13 12 12 12 12 11 11 11 10 10 10 10 11 10 9 8 7 7 6 6 5 5 4 2 2 2 3 5 6 7 8 10 11 13 15 16 18 21 23 25 28 29 31
13 13 12 12 12 12 12 10 10 10 10 9 9 9 8 8 7 6 5 5 4 3 3 3 3 4 5 7 9 10 12 14 15 16 18 20 22 24 26 28 30 32 33 35
12 11 11 10 10 10 10 9 9 9 9 8 7 6 6 6 5 5 4 3 2 2 4 5 6 8 9 11 13 16 18 20 21 23 24 26 28 30 32 34 36 38 39 41
10 9 9 8 7 7 7 7 7 7 7 6 6 5 4 4 3 2 3 4 5 6 7 8 9 11 13 15 17 19 21 23 26 28 30 32 33 35 37 39 41 42 44 46
9 8 7 6 5 5 6 5 5 5 5 4 4 3 2 2 3 4 5 6 7 8 10 11 13 15 17 19 21 24 26 29 31 33 35 38 40 42 44 45 47 49 50 52
6 5 4 3 3 3 3 3 3 2 2 3 3 4 4 5 6 6 8 9 11 12 14 16 18 20 22 24 27 29 31 34 36 39 41 44 46 48 50 52 54 55 57 58
4 3 2 1 1 0 0 1 1 2 3 4 5 6 7 7 8 9 11 12 14 15 18 20 22 24 27 29 32 34 37 39 42 45 47 50 52 55 57 59 61 62 64 65
2 1 1 1 2 2 2 3 4 5 5 7 7 8 8 9 10 11 13 14 16 18 21 24 26 29 32 34 36 39 41 44 47 50 53 56 58 60 62 64 65 67 67 68
3 3 3 3 3 4 4 5 6 6 8 8 9 9 10 11 13 15 17 19 21 23 26 28 31 33 35 38 40 43 46 50 52 55 57 59 61 64 66 67 68 69 69 70
4 4 4 5 5 5 6 7 8 8 9 10 10 12 13 14 16 18 20 23 25 27 30 32 35 37 39 42 45 48 51 54 56 58 60 61 63 65 66 68 69 70 71 71
5 6 6 6 7 7 8 9 10 10 11 12 13 15 16 18 19 21 24 26 28 30 33 36 38 41 43 45 48 51 54 56 58 60 62 63 63 64 65 66 68 68 69 70
7 7 8 8 9 9 10 11 12 13 14 15 16 18 19 21 22 24 26 29 31 34 36 39 41 43 45 47 51 54 56 58 60 62 63 63 63 64 64 65 66 67 67 69
10 10 10 10 11 11 12 13 14 15 16 18 19 21 22 23 25 27 29 32 35 37 40 42 43 45 47 50 53 56 59 60 62 63 63 63 63 64 64 64 64 65 65 64
Wind_Direction
266 267 269 272 271 273 273 269 265 267 268 268 268 267 265 264 260 255 251 246 242 239 236 235 233 231 229 228 227 226 225 226 225 225 227 227 228 229 230 230 233 233 234 234
258 261 264 266 268 269 261 250 248 253 267 270 277 289 286 276 266 256 248 240 236 234 231 231 230 228 225 224 224 224 224 226 223 223 225 227 229 228 228 230 231 231 233 234
251 255 255 256 254 247 241 232 236 248 246 274 317 349 328 298 272 245 234 232 225 224 223 224 223 219 219 219 220 221 220 220 221 225 227 228 229 227 228 230 230 231 232 233
243 240 234 232 234 229 219 221 220 206 212 306 12 34 33 55 97 197 201 208 217 216 218 216 216 214 215 216 217 218 219 221 224 226 226 227 227 228 228 231 232 232 233 234
223 216 214 215 218 204 195 185 169 147 114 72 72 92 85 92 95 87 108 150 177 196 200 197 199 202 204 208 212 214 218 221 224 226 229 226 225 227 229 230 231 232 233 234
188 189 182 172 159 147 140 138 136 124 104 95 101 101 95 97 90 91 98 115 129 143 157 169 181 187 191 199 203 208 215 220 224 226 227 224 224 226 230 230 231 233 234 235
157 152 150 146 138 130 128 129 127 120 110 107 108 104 97 92 97 102 105 112 119 125 136 153 166 173 187 192 198 206 211 218 222 225 225 222 223 226 231 235 235 234 233 234
141 138 135 133 129 124 125 121 119 119 115 111 107 101 96 97 102 100 101 108 113 115 122 134 153 166 174 183 190 198 203 209 213 217 220 220 224 225 230 233 233 234 234 235
128 127 126 124 122 121 121 117 114 114 112 108 106 103 102 103 102 101 104 103 109 110 115 125 138 144 151 168 181 185 196 201 205 208 220 224 223 227 230 230 233 236 235 234
121 122 125 122 118 118 119 114 112 111 112 107 104 106 109 111 106 105 107 108 112 112 113 119 128 131 132 140 156 179 188 200 207 210 219 225 235 238 236 236 241 242 241 241
119 120 120 117 116 116 113 104 102 105 108 111 108 103 102 107 108 107 109 113 118 116 116 118 120 133 135 145 160 169 182 202 216 226 230 235 240 242 242 243 245 247 248 249
118 118 117 116 113 108 103 99 100 101 100 101 104 104 102 104 105 105 105 106 110 112 115 120 123 124 123 130 143 177 208 222 233 239 242 246 250 249 249 250 250 250 251 253
113 114 114 112 111 110 107 106 104 101 101 101 102 104 104 103 104 104 103 99 102 106 111 116 117 113 112 152 242 256 260 262 260 259 262 264 264 260 258 256 256 256 257 258
111 111 111 108 110 114 110 107 104 102 106 105 104 107 106 104 102 102 102 94 88 86 81 76 55 15 323 299 297 287 285 287 284 277 274 273 273 270 268 265 264 262 262 262
113 111 112 110 110 112 110 104 101 99 104 108 107 107 105 102 105 106 97 89 68 50 37 17 350 331 317 312 305 301 296 293 291 288 283 280 277 275 274 273 271 269 269 268
116 114 113 112 113 113 110 107 106 105 107 107 107 105 99 100 98 90 73 50 23 356 337 327 319 312 308 304 300 297 296 294 292 290 288 284 282 280 278 277 276 274 273 272
118 118 118 121 122 118 115 108 105 102 100 98 95 88 81 83 72 37 358 339 335 332 324 316 311 308 307 305 303 300 297 296 295 294 293 290 288 285 282 281 280 278 276 274
120 123 122 121 120 113 110 106 102 99 91 84 71 61 53 16 350 339 332 326 322 320 318 315 312 312 311 309 307 305 302 300 298 296 294 292 290 289 287 285 284 281 279 277
126 127 122 121 121 114 101 93 94 81 57 30 5 352 342 335 330 327 325 321 319 318 316 315 314 313 311 309 308 306 305 303 301 299 297 295 293 291 289 287 286 284 282 281
135 135 133 134 132 6 9 338 324 331 333 326 324 323 321 321 320 319 318 318 318 317 316 314 313 312 310 309 308 307 305 303 301 299 298 296 294 292 290 289 288 286 284 282
178 200 235 269 284 290 292 300 305 315 320 318 320 321 320 319 319 318 318 318 316 315 314 314 313 311 311 310 309 308 306 305 303 301 299 297 295 293 292 290 289 287 285 284
236 245 258 267 278 283 288 297 302 305 308 312 314 316 316 316 316 316 317 316 315 314 314 313 313 312 311 310 309 308 307 306 305 304 302 299 297 295 294 292 290 288 286 284
255 256 264 270 278 282 289 293 298 302 306 309 310 310 311 312 313 315 315 314 314 314 314 313 312 312 311 310 310 310 309 309 308 306 304 302 299 297 296 294 292 290 288 286
258 262 267 273 277 281 287 292 296 299 302 304 306 308 310 311 312 313 313 313 314 314 314 313 313 312 312 312 311 311 311 310 309 307 305 303 301 300 298 296 295 292 290 288
266 267 271 275 279 284 289 293 295 297 301 303 305 307 309 310 311 312 312 313 313 314 314 314 314 313 313 313 313 313 312 311 310 308 306 304 302 301 299 298 297 295 292 290
270 273 275 279 283 288 290 293 296 298 300 302 304 305 307 308 309 310 311 312 313 313 314 314 313 313 314 314 314 314 314 313 311 310 308 306 304 302 301 300 298 296 294 292
Height
5636 5637 5636 5634 5633 5632 5631 5630 5629 5628 5627 5627 5626 5625 5624 5622 5622 5623 5624 5625 5628 5631 5635 5639 5644 5651 5658 5665 5672 5678 5685 5691 5697 5704 5709 5714 5721 5727 5732 5736 5741 5746 5750 5755
5633 5632 5632 5630 5629 5628 5627 5627 5627 5626 5625 5624 5624 5623 5621 5620 5619 5619 5619 5620 5622 5624 5628 5632 5636 5643 5650 5657 5664 5670 5677 5683 5690 5696 5702 5707 5712 5718 5723 5728 5733 5737 5742 5746
5629 5629 5628 5628 5627 5626 5625 5625 5625 5624 5624 5623 5622 5622 5620 5618 5617 5617 5618 5618 5619 5621 5624 5627 5631 5637 5644 5651 5657 5663 5670 5677 5683 5689 5694 5699 5704 5710 5715 5720 5725 5730 5734 5738
5626 5626 5626 5625 5625 5624 5624 5624 5624 5623 5623 5622 5622 5621 5620 5618 5617 5617 5617 5617 5618 5620 5622 5625 5629 5635 5641 5647 5653 5659 5665 5671 5677 5682 5687 5692 5698 5703 5709 5714 5719 5723 5727 5730
5624 5624 5624 5624 5624 5623 5623 5623 5623 5623 5622 5622 5622 5621 5622 5619 5618 5618 5617 5617 5618 5620 5622 5625 5629 5634 5639 5644 5649 5655 5661 5666 5671 5676 5681 5686 5691 5696 5702 5707 5711 5715 5719 5722
5623 5623 5623 5623 5623 5623 5623 5623 5623 5623 5623 5623 5623 5623 5623 5621 5620 5619 5619 5619 5621 5622 5624 5627 5630 5634 5639 5643 5648 5652 5658 5663 5667 5672 5676 5680 5686 5690 5695 5700 5704 5708 5712 5715
5623 5623 5623 5623 5623 5623 5623 5624 5625 5625 5624 5625 5624 5624 5625 5623 5622 5622 5622 5623 5624 5625 5627 5630 5633 5636 5640 5644 5648 5652 5656 5660 5664 5668 5672 5676 5680 5685 5689 5693 5697 5701 5704 5707
5623 5624 5624 5623 5624 5624 5624 5626 5627 5627 5627 5627 5626 5626 5627 5625 5625 5625 5625 5626 5626 5628 5630 5632 5635 5638 5641 5644 5648 5651 5655 5658 5662 5665 5669 5672 5675 5679 5683 5687 5690 5693 5696 5699
5624 5625 5625 5625 5626 5626 5627 5628 5629 5629 5629 5629 5629 5629 5629 5628 5628 5628 5629 5629 5630 5631 5633 5635 5637 5639 5642 5645 5648 5651 5654 5657 5660 5663 5666 5668 5672 5674 5677 5680 5682 5685 5688 5691
5626 5627 5628 5628 5629 5629 5630 5631 5631 5632 5631 5631 5632 5631 5632 5631 5631 5631 5632 5633 5634 5635 5636 5638 5639 5641 5644 5646 5648 5651 5654 5656 5658 5661 5663 5665 5668 5670 5672 5674 5676 5678 5680 5682
5629 5630 5631 5631 5632 5632 5633 5634 5634 5634 5634 5635 5634 5637 5635 5634 5634 5635 5635 5636 5638 5639 5640 5641 5642 5644 5645 5647 5649 5651 5653 5655 5657 5658 5660 5662 5664 5665 5666 5667 5669 5671 5672 5674
5632 5633 5633 5635 5635 5635 5636 5636 5636 5637 5637 5637 5638 5641 5637 5637 5638 5638 5639 5640 5641 5642 5642 5643 5645 5646 5647 5649 5650 5651 5652 5653 5655 5656 5657 5658 5659 5660 5661 5662 5663 5663 5664 5665
5635 5636 5637 5638 5640 5640 5639 5639 5639 5640 5640 5640 5640 5644 5640 5641 5641 5641 5642 5642 5643 5643 5644 5645 5646 5647 5648 5649 5650 5650 5651 5652 5652 5653 5653 5654 5654 5654 5655 5655 5655 5656 5656 5656
5638 5640 5641 5642 5642 5642 5642 5642 5642 5643 5643 5643 5644 5644 5644 5643 5643 5644 5644 5644 5644 5645 5646 5646 5647 5647 5648 5648 5648 5649 5649 5649 5649 5649 5649 5649 5649 5648 5648 5648 5648 5648 5647 5647
5642 5643 5644 5644 5645 5645 5645 5645 5645 5645 5645 5646 5646 5646 5646 5646 5646 5646 5646 5646 5646 5646 5646 5646 5647 5647 5646 5646 5646 5646 5645 5645 5644 5644 5643 5642 5642 5641 5640 5640 5639 5638 5637 5637
5646 5646 5647 5648 5648 5648 5648 5648 5648 5648 5648 5648 5648 5648 5647 5647 5647 5647 5647 5647 5646 5646 5646 5645 5645 5645 5645 5644 5643 5642 5641 5640 5638 5637 5636 5635 5633 5632 5631 5629 5628 5627 5625 5624
5649 5649 5650 5650 5650 5650 5651 5650 5650 5650 5649 5649 5649 5650 5648 5648 5648 5647 5647 5646 5646 5645 5645 5644 5643 5642 5641 5640 5639 5637 5636 5634 5631 5629 5627 5625 5623 5621 5619 5617 5615 5613 5611 5609
5652 5652 5652 5652 5653 5652 5654 5651 5651 5651 5650 5650 5649 5649 5649 5648 5648 5647 5646 5645 5644 5643 5642 5641 5640 5638 5636 5634 5632 5630 5627 5625 5622 5619 5617 5614 5611 5608 5605 5603 5600 5597 5595 5592
5654 5654 5654 5654 5653 5653 5654 5652 5652 5651 5651 5650 5649 5649 5648 5647 5646 5645 5644 5643 5641 5640 5638 5637 5635 5632 5630 5628 5625 5622 5618 5615 5611 5607 5604 5600 5596 5593 5589 5586 5582 5579 5576 5573
5655 5655 5655 5654 5654 5654 5655 5653 5652 5652 5651 5650 5649 5647 5646 5645 5645 5644 5641 5639 5637 5635 5633 5631 5629 5625 5622 5619 5615 5612 5608 5603 5599 5594 5589 5584 5579 5574 5570 5566 5562 5558 5554 5550
5656 5655 5655 5654 5654 5654 5653 5652 5652 5652 5651 5649 5647 5645 5644 5643 5642 5640 5638 5636 5633 5631 5628 5625 5621 5617 5614 5609 5605 5600 5595 5590 5585 5579 5573 5567 5560 5555 5549 5544 5539 5534 5530 5526
5656 5655 5655 5654 5653 5655 5652 5651 5651 5650 5648 5646 5645 5643 5641 5640 5638 5636 5633 5631 5628 5625 5621 5617 5613 5608 5604 5599 5594 5588 5582 5576 5569 5562 5555 5548 5540 5533 5527 5520 5515 5509 5504 5500
5655 5655 5654 5654 5655 5652 5650 5649 5648 5647 5645 5644 5642 5640 5638 5636 5634 5631 5628 5625 5622 5618 5614 5609 5604 5599 5593 5587 5581 5575 5568 5560 5552 5544 5536 5527 5519 5511 5503 5496 5490 5484 5478 5474
5654 5653 5652 5651 5651 5650 5648 5647 5646 5644 5642 5641 5639 5637 5634 5631 5629 5626 5622 5618 5614 5610 5605 5600 5594 5588 5581 5575 5567 5560 5552 5544 5535 5526 5517 5508 5499 5491 5483 5474 5467 5460 5454 5448
5652 5650 5650 5649 5648 5647 5645 5644 5642 5641 5639 5637 5634 5632 5629 5626 5623 5619 5615 5611 5607 5602 5596 5590 5583 5577 5570 5562 5554 5546 5537 5527 5518 5508 5498 5488 5480 5471 5463 5454 5445 5437 5430 5422
5648 5648 5647 5646 5645 5644 5642 5640 5639 5636 5634 5632 5629 5627 5624 5620 5617 5613 5608 5603 5598 5593 5586 5579 5572 5565 5558 5550 5541 5531 5521 5511 5500 5490 5480 5470 5461 5452 5443 5434 5426 5416 5407 5400